User: anonymous   Login
Location: Unspecified
(0.0000°N, 0.0000°E)
Time: 14:43:07
(UTC+02:00)
Language:

Palapa 6 Rocket - Orbit

View from above orbital plane
View from above orbital plane
View from above satellite
View from above satellite

Ground track
Ground track

The orbit data is extracted from the following two-line orbital elements,

1 20571U 90034B   17118.95366437 +.00000733 +00000-0 +58831-4 0  9994
2 20571 022.7483 115.9767 0508397 260.2554 094.0145 14.11909548385567
Epoch (UTC): 28 April 2017 22:53:16
Eccentricity: 0.0508397
inclination: 22.7483°
perigee height: 485 km
apogee height: 1220 km
right ascension of ascending node: 115.9767°
argument of perigee: 260.2554°
revolutions per day: 14.11909548
mean anomaly at epoch: 94.0145°
orbit number at epoch: 38556

The dashed part of the orbit path shows where the satellite is in the earth's shadow,  

DLR